sat.trackr.live / text

‹ back to catalog

STARLINK-35615

NORAD 66257 · 2025-245Z

PAYLOAD ACTIVE UNKNOWN

§ Identity

Operator
Country
US
Launch date
2025-10-29
Launch site
AFETR
Launch vehicle
Mass (kg)
RCS (m²)

Purposes: comms

External: N2YO · Heavens-Above · Gunter

§ Orbital elements

Epoch: 2026-05-25T03:05:55.655232Z

Period
94.11 min
Inclination
53.1604°
Eccentricity
0.0001180
Mean motion
15.30205571 rev/d
Perigee alt
474.4 km
Apogee alt
476.0 km
Semi-major
6,853.3 km
B*
7.4915e-4
RAAN
288.5550°
Arg perigee
98.9519°
Mean anomaly
261.1616°
Rev number
3,296

§ Raw data

STARLINK-356151 66257U 25245Z   26145.12911638  .00021898  00000+0  74915-3 0  99992 66257  53.1604 288.5550 0001180  98.9519 261.1616 15.30205571 32963

JSON: /api/v1/satellites/66257 · /tle

For live sub-satellite position, see the globe view (requires WebGL).

§ Visibility from observer

Set your observer location to see the next 7 days of passes ≥ 10°. The values pass through the URL so the page stays shareable.

No JS? Fill the form by hand. The geolocation button needs JavaScript.